Meteo Giornale » Osservazioni meteo Gran Bretagna » Cranfield

ore: 21:50 - Osservazioni Meteo Cranfield
Lat. 52° 4' N Lon. 0° 37' W Alt. 111 metri s.l.m.

sereno Europe/London

12 °C

Sereno

Temp. 24 Ore

9 °C

19 °C

Sud-Ovest

14.8 Km/h

Dew point 11 °C

Umidità 93 %

Visibilità  10 Km

Il sole sorge alle ore 06:47

Il sole tramonta alle ore 19:02

Data e Ora Cielo e Fenomeni T °C DP °C Um. % Pres. hPa Vis. km Vento km/h
Ieri h: 21:50 sereno Sereno 12 11 93 1023 10 SO 14.8
Ieri h: 21:20 sereno Sereno 13 11 87 1024 10 O/SO 14.8
Ieri h: 20:50 sereno Sereno 13 11 87 1024 10 O/SO 16.7
Ieri h: 20:20 sereno Sereno 13 11 87 1024 10 SO 14.8
Ieri h: 19:20 sereno Sereno 14 11 82 1024 10 SO 13
Ieri h: 18:50 sereno Sereno 16 11 72 1024 10 O/SO 13
Ieri h: 18:20 sereno Sereno 17 12 72 1024 10 SO 18.5
Ieri h: 17:50 sereno Sereno 18 12 67 1025 10 SO 22.2
Ieri h: 16:50 sereno Sereno 19 12 63 1025 10 O/SO 24
Ieri h: 14:50 nuvoloso Nuvoloso 18 13 72 1026 8 SO 22.2
Ieri h: 14:20 poco_nuvoloso Poco Nuvoloso 16 12 77 1026 8 SO 25.9
Ieri h: 13:50 poco_nuvoloso Poco Nuvoloso 16 13 82 1027 8 SO 20.3
Ieri h: 13:20 poco_nuvoloso Poco Nuvoloso 16 13 82 1027 8 SO 20.3
Ieri h: 12:50 poco_nuvoloso Poco Nuvoloso 16 13 82 1028 8 SO 22.2
Ieri h: 12:20 poco_nuvoloso Poco Nuvoloso 16 13 82 1028 7 SO 16.7
Ieri h: 11:50 poco_nuvoloso Poco Nuvoloso 16 13 82 1028 9 O/SO 16.7
Ieri h: 11:20 poco_nuvoloso Poco Nuvoloso 16 13 82 1028 9 O/SO 16.7
Ieri h: 10:50 poco_nuvoloso Poco Nuvoloso 16 12 77 1029 9 O 16.7
Ieri h: 10:20 sereno Sereno 15 13 87 1029 10 O/SO 13
Ieri h: 09:50 sereno Sereno 14 12 87 1028 10 O/SO 9.3
Ieri h: 09:20 sereno Sereno 13 12 93 1029 8 SO 13
Ieri h: 08:50 sereno Sereno 12 11 93 1029 8 SO 11.1
Ieri h: 08:20 sereno Sereno 11 11 100 1029 8 SO 13
Ieri h: 07:50 sereno Sereno 10 10 100 1028 8 O/SO 11.1
Ieri h: 07:20 sereno Sereno 9 9 100 1028 7 O/SO 13